Location: Pace/Milton
(30.6162°N, 87.1503°W)
Time: 08:36:38
(UTC-06:00)

Hubble Space Telescope - Pass Details

Date: 28 November 2021
Orbit: 535 x 538 km, 28.5° (Epoch: 23 January)

Event Time Altitude Azimuth Distance (km) Brightness Sun altitude
Exits shadow 04:56:31 41° 242° (WSW) 781 1.2 -19.0°
Maximum altitude 04:57:47 65° 177° (S) 586 0.9 -18.7°
Drops below altitude 10° 05:01:51 10° 96° (E) 1,776 4.7 -17.9°
Sets 05:04:07 0° 93° (E) 2,667 5.9 -17.4°
